Ashtabula, OH

12:09 PM EDT on October 20, 2017 (GMT -0400)
Ashtabula County

Weather History for KHZY - September, 2014

Change the Weather History Date:

Tuesday, September 2, 2014

  Actual Average (KGKJ) Record (KGKJ)
Temperature  
Mean Temperature 69 °F -  
Max Temperature 77 °F 78 °F 96 °F (1953)
Min Temperature 63 °F 53 °F 39 °F (1948)
Cooling Degree Days 4    
Growing Degree Days 19 (Base 50)    
Moisture  
Dew Point 66 °F    
Average Humidity 88    
Maximum Humidity 97    
Minimum Humidity 74    
Precipitation  
Precipitation 0.05 in - - ()
Sea Level Pressure  
Sea Level Pressure 29.91 in    
Wind  
Wind Speed 7 mph (WSW)    
Max Wind Speed 13 mph    
Max Gust Speed 21 mph    
Visibility 8 miles    
Events Rain    
Averages and records for this station are not official NWS values.
T = Trace of Precipitation, MM = Missing Value Source: NWS Daily Summary

Daily Weather History Graph

Daily Weather History Graph

Search for Another Location

Airport or City:

Trip Planner

Search our weather history database for the weather conditions in past years. The results will help you decide how hot, cold, wet, or windy it might be!

Date:

Astronomy

Sep. 02, 2014 Rise Set
Actual Time 6:49 AM EDT 7:54 PM EDT
Civil Twilight 6:21 AM EDT 8:22 PM EDT
Nautical Twilight 5:46 AM EDT 8:56 PM EDT
Astronomical Twilight 5:11 AM EDT 9:32 PM EDT
Moon 2:38 PM EDT (9/2) No Moon Set
Length of Visible Light 14h 01m
Length of Day
13h 04m
First Quarter, 52% of the Moon is Illuminated
Sep 2
First Quarter
Sep 8
Full
Sep 15
Last Quarter
Sep 24
New
Oct 1
First Quarter

Hourly Weather History & Observations

Time (EDT) Temp. Dew Point Humidity Pressure Visibility Wind Dir Wind Speed Gust Speed Precip Events Conditions
12:53 AM 73.9 °F 70.0 °F 87% 29.88 in 10.0 mi SSW 6.9 mph - 0.00 in   Mostly Cloudy
1:53 AM 73.0 °F 70.0 °F 90% 29.88 in 10.0 mi SSW 5.8 mph - N/A   Partly Cloudy
2:53 AM 73.0 °F 70.0 °F 90% 29.88 in 10.0 mi SSW 10.4 mph - N/A   Partly Cloudy
3:53 AM 72.0 °F 70.0 °F 93% 29.87 in 10.0 mi SSW 6.9 mph - N/A   Partly Cloudy
4:53 AM 73.0 °F 70.0 °F 90% 29.89 in 10.0 mi SW 6.9 mph - N/A   Overcast
5:53 AM 71.1 °F 69.1 °F 93% 29.90 in 8.0 mi SSW 4.6 mph - N/A   Clear
6:53 AM 69.1 °F 66.9 °F 93% 29.90 in 4.0 mi SSW 3.5 mph - N/A   Clear
7:53 AM 70.0 °F 68.0 °F 93% 29.92 in 7.0 mi South 6.9 mph - N/A   Clear
8:53 AM 73.9 °F 69.1 °F 85% 29.93 in 10.0 mi SW 11.5 mph 20.7 mph N/A   Partly Cloudy
9:53 AM 75.9 °F 69.1 °F 79% 29.91 in 10.0 mi WSW 12.7 mph - N/A   Partly Cloudy
10:53 AM 75.9 °F 68.0 °F 76% 29.88 in 10.0 mi West 8.1 mph - N/A   Partly Cloudy
11:26 AM 75.9 °F 66.9 °F 74% 29.91 in 10.0 mi WSW 10.4 mph - N/A   Mostly Cloudy
11:53 AM 73.9 °F 68.0 °F 82% 29.89 in 10.0 mi SW 5.8 mph - N/A   Overcast
12:53 PM 75.0 °F 69.1 °F 82% 29.88 in 10.0 mi SW 8.1 mph - N/A   Overcast
1:53 PM 70.0 °F 66.9 °F 90% 29.88 in 4.0 mi WSW 10.4 mph - 0.05 in Rain Light Rain
2:53 PM 72.0 °F 68.0 °F 87% 29.86 in 10.0 mi WSW 9.2 mph - 0.00 in Rain Light Rain
3:53 PM 73.0 °F 66.0 °F 79% 29.86 in 10.0 mi West 9.2 mph - 0.00 in   Overcast
4:53 PM 72.0 °F 64.9 °F 78% 29.87 in 10.0 mi WNW 10.4 mph - N/A   Overcast
5:53 PM 71.1 °F 64.9 °F 81% 29.89 in 10.0 mi West 9.2 mph - 0.00 in   Scattered Clouds
6:10 PM 71.1 °F 66.0 °F 84% 29.91 in 10.0 mi WNW 11.5 mph - N/A   Mostly Cloudy
6:44 PM 71.1 °F 64.9 °F 81% 29.92 in 10.0 mi WNW 10.4 mph - N/A   Mostly Cloudy
6:53 PM 70.0 °F 64.9 °F 84% 29.90 in 10.0 mi West 10.4 mph - N/A   Mostly Cloudy
7:01 PM 70.0 °F 64.9 °F 84% 29.92 in 10.0 mi WNW 9.2 mph - N/A   Mostly Cloudy
7:19 PM 70.0 °F 64.9 °F 84% 29.91 in 10.0 mi WNW 8.1 mph - N/A   Scattered Clouds
7:53 PM 68.0 °F 64.9 °F 90% 29.91 in 10.0 mi West 5.8 mph - N/A   Clear
8:17 PM 68.0 °F 64.9 °F 90% 29.93 in 10.0 mi Calm Calm - N/A   Mostly Cloudy
8:53 PM 68.0 °F 66.0 °F 93% 29.93 in 10.0 mi Calm Calm - N/A   Overcast
9:26 PM 66.9 °F 64.9 °F 93% 29.95 in 10.0 mi WSW 5.8 mph - N/A   Scattered Clouds
9:50 PM 66.2 °F 64.4 °F 94% 29.95 in 10.0 mi WSW 3.5 mph - N/A   Partly Cloudy
9:53 PM 66.0 °F 64.0 °F 93% 29.93 in 10.0 mi Calm Calm - N/A   Partly Cloudy
10:28 PM 64.9 °F 64.0 °F 97% 29.95 in 8.0 mi Calm Calm - N/A   Mostly Cloudy
10:42 PM 64.9 °F 64.0 °F 97% 29.96 in 6.0 mi Calm Calm - N/A   Scattered Clouds
10:53 PM 64.9 °F 64.0 °F 97% 29.95 in 2.5 mi Calm Calm - N/A   Scattered Clouds
11:07 PM 64.0 °F 63.0 °F 96% 29.97 in 4.0 mi Calm Calm - N/A   Scattered Clouds
11:15 PM 63.0 °F 62.1 °F 97% 29.97 in 2.5 mi Calm Calm - N/A   Scattered Clouds
11:22 PM 63.0 °F 62.1 °F 97% 29.97 in 4.0 mi Calm Calm - N/A   Scattered Clouds
11:53 PM 64.0 °F 62.1 °F 93% 29.97 in 4.0 mi Calm Calm - N/A   Scattered Clouds